Regional Weather Roundup
Issued by NWS

Home | Current Version | Previous Version | Graphics & Text | Print | Product List | Glossary Off
Versions: 1 2 3 4 5 6 7 8 9 10 11 12 13 14 15 16 17 18 19 20 21 22 23 24 25 26 27 28 29 30 31 32 33 34 35 36 37 38 39 40 41 42 43 44 45 46 47 48 49 50

000
ASUS43 KMKX 271459
RWRWI

WISCONSIN REGIONAL WEATHER ROUNDUP
NATIONAL WEATHER SERVICE MILWAUKEE/SULLIVAN WI
900 AM CST TUE JAN 27 2015

NOTE: "FAIR" INDICATES FEW OR NO CLOUDS BELOW 12,000 FEET WITH NO
SIGNIFICANT WEATHER AND/OR OBSTRUCTIONS TO VISIBILITY.

WIZ001-002-006>008-014>016-023>028-271600-
NORTHWEST WISCONSIN

CITY           SKY/WX    TMP DP  RH WIND       PRES   REMARKS
SUPERIOR ARPT  CLOUDY    27  24  87 CALM      30.16S
ASHLAND        CLOUDY    27  22  81 W3        30.15R
HAYWARD        CLOUDY    26  21  81 CALM      30.14R
SIREN          CLOUDY    28  22  76 CALM      30.15R
CUMBERLAND     CLOUDY    27  21  80 CALM      30.13R
RICE LAKE      CLOUDY    28  24  86 CALM      30.16R
CHETEK         CLOUDY    27  23  85 E3        30.15R
LADYSMITH      CLOUDY    26  22  86 CALM      30.15R
EAU CLAIRE     NOT AVBL
MENOMONIE      CLOUDY    29  24  82 CALM      30.15R
NEW RICHMOND   CLOUDY    29  22  75 E3        30.15R
OSCEOLA        CLOUDY    30  24  77 E6        30.18R WCI  24
$$

WIZ003>005-009-010-017-018-271600-
NORTH CENTRAL WISCONSIN

CITY           SKY/WX    TMP DP  RH WIND       PRES   REMARKS
MANITOWISH WTR CLOUDY    19  19  99 CALM      30.10R FOG
ARBOR VITAE    CLOUDY    22  20  92 CALM      30.10R FOG
WOODRUFF       CLOUDY    22  20  92 CALM      30.10R FOG
RHINELANDER    CLOUDY    20  18  92 E3        30.11R FOG
EAGLE RIVER    LGT SNOW  20  17  88 SE3       30.10R
LAND O LAKES   LGT SNOW  20  19  93 CALM      30.10S
PHILLIPS       CLOUDY    20  19  95 CALM      30.11R FOG
TOMAHAWK       CLOUDY    21  19  92 CALM      30.12R FOG
MEDFORD        CLOUDY    21  19  93 CALM      30.11R FOG
MERRILL        CLOUDY    22  22  98 CALM      30.12R FOG
$$

WIZ029-030-035-036-043>047-271600-
CENTRAL WISCONSIN

CITY           SKY/WX    TMP DP  RH WIND       PRES   REMARKS
WAUSAU         CLOUDY    22  20  92 E7        30.13R FOG     WCI  13
MOSINEE        LGT SNOW  21  21 100 E6        30.14R WCI  14
MARSHFIELD     CLOUDY    23  20  88 NE5       30.14R FOG     WCI  17
STEVENS POINT  CLOUDY    21  20  95 E7        30.15R FOG     WCI  12
WAUPACA        CLOUDY    26  22  85 NE3       30.16R
WAUTOMA        NOT AVBL
WISC RAPIDS    CLOUDY    23  21  92 NE5       30.16R FOG     WCI  17
CAMP DOUGLAS   NOT AVBL
$$

WIZ011>013-019>022-031-037>040-048>050-271600-
NORTHEAST WISCONSIN

CITY           SKY/WX    TMP DP  RH WIND       PRES   REMARKS
ANTIGO         FLURRIES  20  19  96 SE5       30.11R WCI  13
SHAWANO        CLOUDY    24  20  85 NE3       30.17R
OCONTO         SUNNY     22  17  80 CALM      30.18R
STURGEON BAY   CLOUDY    23  16  74 NE6       30.19R WCI  16
GREEN BAY      CLOUDY    24  17  74 NE10      30.18R WCI  14
MANITOWOC      NOT AVBL
APPLETON       CLOUDY    25  18  74 E6        30.15R WCI  18
CLINTONVILLE   CLOUDY    23  21  93 NE3       30.16R
OSHKOSH        CLOUDY    24  18  77 NE6       30.15R WCI  17
$$

WIZ032>034-041-042-053>061-271600-
SOUTHWEST WISCONSIN

CITY           SKY/WX    TMP DP  RH WIND       PRES   REMARKS
LA CROSSE      CLOUDY    30  21  69 NE5       30.17R WCI  25
SPARTA         CLOUDY    26  24  95 NE3       30.16R
VIROQUA        CLOUDY    26  23  88 N8        30.12R WCI  17
BOSCOBEL       CLOUDY    29  22  75 N7        30.16R WCI  22
PRAIRIE DU CHI CLOUDY    30  20  65 N7        30.16R WCI  23
PLATTEVILLE    CLOUDY    27  23  84 N15       30.12R WCI  15
$$

WIZ056-057-062-063-064-067-068-271600-
SOUTH CENTRAL WISCONSIN

CITY           SKY/WX    TMP DP  RH WIND       PRES   REMARKS
REEDSBURG      CLOUDY    24  21  91 N3        30.14R FOG
BARABOO/DELLS  CLOUDY    23  21  92 N5        30.13R FOG     WCI  17
LONE ROCK      NOT AVBL
MINERAL POINT  CLOUDY    28  25  86 NE9       30.11R WCI  20
MADISON        CLOUDY    25  22  88 N7        30.14R FOG     WCI  17
MIDDLETON      CLOUDY    26  24  91 N6        30.14R WCI  20
WATERTOWN      CLOUDY    26  24  93 E5        30.12R WCI  20
MONROE         CLOUDY    25  25 100 N10       30.11R FOG     WCI  15
JANESVILLE     CLOUDY    28  27  93 N5        30.13R FOG     WCI  23
$$

WIZ051-052-058>065-066-070>072-271600-
SOUTHEAST WISCONSIN

CITY           SKY/WX    TMP DP  RH WIND       PRES   REMARKS
MILWAUKEE      CLOUDY    28  19  69 NE8       30.14R WCI  20
WAUKESHA       CLOUDY    25  21  86 E7        30.14R WCI  17
MILWAUKEE/TIMM CLOUDY    27  19  74 NE7       30.15R WCI  19
RACINE         CLOUDY    28  18  66 NE9       30.15R WCI  19
BURLINGTON     CLOUDY    26  22  88 NE6       30.12R WCI  19
KENOSHA        CLOUDY    28  21  75 NE12      30.13R WCI  18
FOND DU LAC    CLOUDY    25  18  74 NE7       30.15R WCI  17
SHEBOYGAN      SUNNY     26  15  63 NE13      30.15R WCI  15
WEST BEND      CLOUDY    27  18  69 NE9       30.13R WCI  17
JUNEAU         CLOUDY    25  21  87 NE7       30.14R WCI  17
$$

LSZ147-162-271600-
LAKE SUPERIOR

STATION/POSITION TIME  TEMP    WIND        PRES    WAVE
                       AIR SEA DIR/SP/G            HT/PER
                 (UTC) (F)     (DEG/KT/KT) (MB)    (FT/S)
DEVILS ISLAND    1400   29      50/  7/  8 1021.4R
PORT WING        1440   27     190/  2/  3 1021.3R
SAXON HARBOR     1400   26        CALM     1020.3R
$$

LMZ867-665-643>646-271600-
LAKE MICHIGAN

STATION/POSITION TIME  TEMP    WIND        PRES    WAVE
                       AIR SEA DIR/SP/G            HT/PER
                 (UTC) (F)     (DEG/KT/KT) (MB)    (FT/S)
NORTHPORT PIER   1400   24     340/  7/  9 1021.7R
SISTER BAY       1313   21        CALM       N/A
KEWAUNEE LAKESHO 1400   23     350/  4/  7 1020.4R
SHEBOYGAN LAKESH 1400   26      60/ 11/ 12 1021.7R
PORT WASHINGTON  1440   29      60/ 10/ 14 1021.7R
KENOSHA   LAKESH 1400   29      50/ 12/ 14 1019.6R
$$

TC  - TEMPERATURE IN CELSIUS
VSB - VISIBILITY IN STATUTE MILES
WCI - WIND CHILL INDEX
HX  - HEAT INDEX



USA.gov is the U.S. government's official web portal to all federal, state and local government web resources and services.